Flag for Central African Republic Weather past 2 weeks in Bambari, Central African Republic

Now
73 °F

Clear.


Feels Like: 68 °F
Forecast: 69 / 83 °F
Wind: No wind

Location: Bangui Airport

Current Time: Sep 19, 2014 at 2:49:13 AM

Latest Report: Sep 19, 2014 at 2:00 AM


Visibility: 10 mi

Pressure: 29.89 "Hg

Humidity: 100%

Dew point: 73 °F

Location of BambariLocation

Historic Weather in Bambari — Graph

°F

Bambari temperature yesterday

Maximum temperature yesterday: 90 °F (at 1:00 PM)
Minimum temperature yesterday: 70 °F (at 12:00 AM)
Average temperature yesterday: 77 °F

Past Weeks' High & Low Weather Summary

 TemperatureHumidityPressure
High91 °F (Sep 13, 3:00 PM)100% (Sep 5, 1:00 AM)30.01 "Hg (Sep 5, 1:00 AM)
Low68 °F (Sep 10, 3:00 AM)49% (Sep 13, 3:00 PM)29.77 "Hg (Sep 5, 4:00 PM)
Average77 °F84%29.90 "Hg
* Reported Midnight between Sep 3 and Sep 4 — Midnight between Sep 18 and Sep 19, Bambari, Weather by CustomWeather, © 2014

Note: Actual official high and low records may vary slightly from our data, if they occured in-between our weather recording intervals... More about our weather records

Advertising

Bambari weather history for previous 24 hours

 ConditionsComfort  
Time TempWeatherWind HumidityBarometerVisibility
12:00 AM
Sep 19
73 °FClear.1 mph100%29.92 "Hg10 mi
11:00 PM
Sep 18
73 °FClear.1 mph100%29.92 "Hg5 mi
10:00 PM75 °FPassing clouds.1 mph94%29.92 "Hg5 mi
9:00 PM75 °FThunderstorms. Passing clouds.1 mph94%29.89 "Hg4 mi
8:00 PM77 °FThunderstorms. Passing clouds.No wind89%29.86 "Hg4 mi
7:00 PM77 °FPassing clouds.3 mph94%29.86 "HgN/A
6:00 PM79 °FPassing clouds.No wind89%29.83 "HgN/A
5:00 PM84 °FScattered clouds.2 mph74%29.80 "HgN/A
4:00 PM79 °FScattered clouds.5 mph84%29.80 "HgN/A
3:00 PM75 °FThunderstorms. Scattered clouds.3 mph89%29.83 "HgN/A
2:00 PM79 °FThunderstorms. Broken clouds.14 mph79%29.86 "HgN/A
1:00 PM90 °FPartly sunny.2 mph63%29.86 "HgN/A
12:00 PM88 °FPartly sunny.3 mph66%29.92 "HgN/A
11:00 AM86 °FScattered clouds.3 mph62%29.95 "HgN/A
10:00 AM82 °FBroken clouds.3 mph70%29.95 "HgN/A
9:00 AM79 °FBroken clouds.2 mph84%29.98 "HgN/A
8:00 AM75 °FPartly sunny.5 mph89%29.98 "HgN/A
7:00 AM72 °FPartly sunny.No wind100%29.95 "Hg5 mi
5:00 AM70 °FOvercast.1 mph100%29.92 "Hg4 mi
4:00 AM70 °FOvercast.2 mph100%29.92 "Hg4 mi
3:00 AM70 °FOvercast.2 mph100%29.89 "Hg4 mi
2:00 AM70 °FOvercast.N/A100%29.89 "HgN/A
Weather by CustomWeather, © 2014

See weather overviewHow to use our weather pages